Temperature
23 23 23 23 22 22 21 21 21 20 20 19 19 19 19 18 18 18 17 17 17 17 17 17 17 18 18 18 18 18 17 18 18 18 18 18 18 19 19 19 19 19 19
22 22 22 22 22 21 21 21 20 20 19 19 19 18 18 17 17 17 17 17 17 17 17 17 18 18 18 18 17 17 17 17 17 17 18 18 18 19 19 19 19 19 18
22 22 22 22 21 21 21 20 19 19 19 18 18 18 17 17 17 17 17 17 17 17 17 17 17 17 17 17 17 17 17 17 17 17 17 17 18 19 19 19 19 18 18
21 21 21 21 21 20 20 19 19 18 18 18 17 18 17 17 17 17 17 17 17 17 17 17 17 17 16 16 16 16 16 16 17 17 18 18 18 18 18 18 18 18 18
18 19 19 19 19 19 19 18 18 18 18 18 17 17 17 17 17 17 17 17 17 17 17 17 16 16 16 16 16 16 16 17 17 17 18 18 18 17 17 17 18 18 18
16 17 17 17 17 17 18 18 18 17 17 17 17 17 17 16 16 16 16 17 17 16 16 16 16 15 15 15 16 16 16 16 17 17 17 17 17 17 17 17 17 17 17
15 16 16 16 16 17 17 17 17 17 17 16 16 16 16 16 16 16 16 16 16 16 15 15 15 15 15 15 15 15 15 15 16 16 16 16 17 17 16 16 16 16 17
15 15 16 16 16 16 16 16 16 16 16 16 15 15 15 16 16 16 16 15 15 15 15 14 14 14 14 14 14 14 14 14 15 15 15 15 16 16 16 16 15 16 16
15 15 15 15 16 15 16 16 16 15 15 15 15 15 15 15 15 15 15 14 14 14 14 14 14 14 14 14 14 14 14 14 14 14 15 15 15 15 15 15 15 15 15
14 14 14 15 15 15 15 15 15 15 14 15 15 15 14 14 14 14 14 14 14 14 14 14 14 14 14 13 13 13 14 14 14 14 14 14 14 14 15 15 15 15 15
14 14 14 14 14 14 14 14 14 14 14 14 14 14 14 13 14 14 14 14 13 13 13 13 13 13 13 13 13 13 14 14 14 14 14 14 14 14 15 15 14 15 15
15 14 14 14 14 14 14 14 14 14 14 14 14 13 13 13 13 13 14 13 13 13 13 13 12 12 13 13 13 13 13 13 13 13 13 13 14 14 14 14 14 14 14
15 14 14 14 14 14 14 14 13 13 13 13 13 13 13 13 13 13 13 12 12 12 13 12 12 12 12 12 12 12 12 12 12 13 13 13 13 13 13 13 14 14 14
14 14 14 14 14 14 13 13 13 13 13 13 13 13 13 13 13 12 12 12 12 12 12 13 13 12 12 12 12 12 12 12 12 12 12 12 12 12 12 13 13 13 13
13 13 13 13 13 13 13 13 12 12 12 12 12 12 12 12 12 12 12 12 12 12 12 13 13 12 12 11 11 12 12 12 12 12 12 12 12 12 12 12 12 13 13
12 12 12 13 13 12 12 12 12 12 12 12 12 12 12 12 12 12 12 12 12 12 12 12 12 12 12 12 12 12 12 11 11 11 11 11 11 11 11 11 11 11 12
13 12 12 12 12 12 12 12 11 11 11 11 11 12 12 12 12 12 12 12 12 12 12 12 12 12 12 12 12 12 12 11 11 11 11 11 11 11 11 11 11 11 11
13 12 12 12 11 11 11 11 11 11 11 11 11 11 11 11 11 11 11 12 12 12 12 12 11 12 12 12 12 12 11 11 11 11 11 11 11 11 11 11 11 11 11
12 12 12 11 11 11 11 11 11 11 11 11 11 11 11 11 11 11 11 11 11 11 11 11 11 11 11 11 11 11 11 11 11 11 11 11 11 11 11 11 11 12 12
12 12 11 11 11 10 10 10 11 11 11 11 11 10 10 10 10 11 10 10 10 11 11 11 11 11 11 11 11 11 11 11 11 11 11 11 11 11 11 11 11 12 12
12 12 11 11 11 10 10 10 10 10 10 10 10 9 9 10 10 10 10 10 10 10 10 10 10 10 11 10 10 10 11 10 10 11 11 11 10 11 11 11 11 11 11
12 12 11 11 11 10 10 10 10 10 10 10 9 9 9 9 10 10 10 10 10 10 10 10 10 10 10 10 10 10 10 10 10 10 10 10 10 10 10 10 10 10 11
12 12 11 11 11 10 10 10 10 10 9 9 9 9 9 9 10 10 10 10 9 9 9 9 9 9 9 9 9 9 9 9 9 9 9 9 9 9 10 10 10 10 10
12 12 11 11 11 10 10 10 10 9 9 9 8 9 9 9 9 9 9 9 9 9 9 9 9 8 8 8 8 8 8 9 9 9 9 9 9 9 9 9 9 9 9
12 12 12 11 11 10 10 10 9 9 9 8 8 8 9 9 9 9 9 9 9 9 9 9 8 8 8 8 8 8 8 8 8 8 8 8 9 9 9 9 9 9 9
12 12 12 11 11 10 10 9 9 9 9 9 9 9 9 8 8 8 8 9 9 8 8 8 8 8 8 8 8 8 8 8 8 8 8 8 8 8 8 8 8 8 8
Wind_Speed
10 10 10 11 11 11 12 11 8 7 7 4 4 3 2 2 2 2 1 2 3 4 3 4 6 6 6 8 8 7 8 7 5 4 4 5 7 8 9 8 7 6 8
11 10 8 8 9 9 9 8 7 6 6 4 3 3 3 2 1 1 3 5 5 5 5 6 7 8 7 9 9 8 6 6 5 5 3 3 4 4 6 6 6 6 5
16 12 9 9 9 9 8 8 8 7 6 5 4 3 3 3 3 3 2 3 5 6 6 7 8 9 8 9 10 9 9 8 6 5 5 5 6 3 3 2 4 4 5
8 8 10 10 10 10 9 9 8 8 7 6 5 5 3 2 1 0 2 4 5 7 8 7 8 8 8 9 9 9 8 8 7 5 6 5 5 3 2 3 2 3 6
4 4 6 8 9 9 8 8 8 7 7 6 6 6 4 2 1 1 4 5 5 6 8 7 7 7 6 8 8 8 9 8 7 6 4 4 4 3 4 3 3 4 4
7 6 5 4 5 5 6 7 8 7 6 6 6 7 6 3 1 1 3 4 4 5 7 7 6 5 4 5 5 6 7 6 5 4 4 4 3 4 4 4 3 4 5
5 4 5 4 3 4 5 5 6 5 5 6 6 6 6 4 2 1 3 4 4 4 5 5 5 5 5 4 3 2 3 3 3 4 3 3 3 2 3 3 2 3 3
5 4 4 4 4 5 5 4 5 6 6 6 6 5 5 3 2 2 2 4 4 4 5 4 4 4 5 5 4 3 3 2 2 3 3 2 3 2 3 3 3 1 2
3 2 2 2 1 2 2 4 6 4 4 4 4 4 4 3 1 2 3 4 4 4 4 4 3 3 4 4 4 3 3 3 2 2 3 3 3 3 2 2 3 3 2
5 6 5 4 3 3 3 4 5 3 1 2 3 4 4 3 2 2 4 5 5 4 4 4 3 3 3 4 3 2 2 2 3 3 4 4 3 3 3 2 1 3 5
5 6 6 4 2 2 4 4 4 3 1 0 3 6 5 4 3 1 2 4 4 5 5 5 4 3 3 3 4 4 3 2 2 2 4 4 5 5 5 4 2 2 3
3 5 6 3 2 3 4 4 4 4 3 2 5 6 6 5 4 1 2 3 4 4 3 4 5 5 4 4 5 5 3 3 2 3 4 4 4 6 4 4 4 3 2
4 1 1 3 4 6 6 6 5 4 4 3 4 6 6 5 3 2 3 3 3 5 4 4 4 4 5 5 5 5 3 4 4 5 5 5 6 6 5 5 5 4 4
3 4 4 5 5 6 6 5 5 4 4 3 3 4 6 6 4 4 2 1 4 5 5 5 5 6 6 7 6 6 7 6 6 6 6 6 5 5 5 5 6 6 6
3 3 3 3 4 5 4 4 4 3 3 3 3 3 4 4 2 1 1 3 4 4 4 5 7 7 7 7 6 5 6 6 6 6 6 7 9 9 6 4 5 6 5
6 5 4 3 3 3 3 3 3 2 3 4 3 3 4 4 4 4 4 5 5 5 5 6 6 7 6 9 10 8 8 8 8 7 6 6 9 10 9 8 7 6 5
6 6 6 4 3 2 1 1 1 1 3 4 4 5 5 6 6 5 5 4 4 4 5 5 6 6 7 10 10 11 8 8 7 7 7 7 9 10 8 9 9 9 10
5 5 5 5 3 3 2 1 1 1 2 3 4 4 5 6 5 5 5 4 3 4 4 5 5 5 7 8 9 10 8 8 7 7 6 7 9 11 9 8 8 8 7
6 5 6 6 5 5 4 3 1 2 4 4 4 3 5 5 4 3 3 3 4 5 4 4 6 7 8 7 8 7 5 5 6 6 6 7 8 12 13 10 9 10 9
6 6 5 4 4 4 4 3 3 5 5 4 3 3 4 4 3 3 1 2 3 5 5 6 7 8 8 11 11 7 4 4 4 6 7 11 11 12 12 7 7 9 7
7 7 5 3 4 5 6 5 5 5 5 4 5 5 4 3 3 3 2 3 4 6 6 7 7 7 8 13 16 14 7 5 6 6 7 8 15 15 13 9 5 6 5
8 8 5 4 4 6 8 7 6 4 5 5 5 4 3 1 2 3 3 4 6 7 6 7 6 5 6 10 13 16 14 9 7 5 5 7 15 15 13 9 10 13 10
9 7 6 6 5 6 8 8 6 6 6 6 5 4 3 2 1 3 4 5 6 6 5 6 5 3 3 5 10 12 12 12 6 5 9 11 14 13 9 11 13 10 7
8 7 8 8 7 6 8 8 7 7 7 7 5 4 3 3 4 4 4 6 6 6 5 5 4 3 3 4 5 5 6 8 8 7 9 11 12 10 8 8 7 6 5
7 8 9 10 9 9 8 8 8 8 7 7 5 4 3 4 5 5 4 5 4 7 7 5 4 4 2 2 3 4 4 5 5 6 5 6 6 8 8 7 6 5 6
10 10 10 9 9 10 10 9 8 8 8 6 5 4 3 3 4 5 5 7 5 6 7 6 5 2 2 2 2 4 5 7 8 4 4 5 5 5 6 6 6 7 7
Wind_Direction
161 160 168 184 187 186 180 179 168 164 160 156 158 166 193 237 241 238 262 349 316 301 272 254 248 238 236 240 232 229 238 240 224 225 263 276 256 242 240 240 244 252 256
161 163 166 173 178 174 163 152 144 138 140 130 129 138 146 154 132 55 48 32 6 337 304 266 254 248 247 251 245 235 239 238 205 194 203 267 296 270 245 235 239 257 274
169 162 143 132 126 119 115 112 114 114 111 112 113 96 80 60 46 41 16 339 341 332 306 277 264 255 244 249 246 236 232 238 228 200 177 193 225 274 303 243 232 245 257
158 143 128 118 112 109 105 103 103 105 110 105 98 99 102 99 90 2 311 324 347 338 323 299 279 267 254 247 245 232 222 218 224 216 210 202 176 181 276 307 275 259 252
47 89 105 113 116 121 123 125 118 120 122 119 116 106 100 100 79 10 351 341 331 327 331 323 309 288 267 250 239 226 220 215 212 201 193 207 207 189 192 248 292 306 287
28 37 46 65 91 109 121 135 137 141 133 119 114 120 118 106 73 341 322 317 317 322 332 334 334 325 305 274 254 244 238 236 232 222 209 189 186 194 191 209 242 274 285
13 32 47 40 45 77 98 128 140 128 117 118 126 133 132 125 130 253 308 324 325 316 318 335 348 349 349 348 338 312 301 274 258 249 244 235 226 200 178 179 222 256 286
348 351 4 9 11 25 53 86 117 119 128 136 138 133 120 107 82 21 348 328 305 294 302 323 345 351 354 355 346 324 306 282 266 272 276 270 268 234 193 172 172 242 311
267 255 259 265 29 352 43 96 112 117 135 142 128 117 110 95 41 329 323 309 298 303 316 323 320 328 340 351 349 328 310 294 299 334 359 349 313 275 220 175 166 170 235
271 255 238 224 179 175 154 119 119 122 149 158 138 135 144 163 214 261 288 294 297 303 314 324 316 313 326 335 343 339 360 40 27 24 34 30 5 359 15 31 192 199 212
269 269 251 224 176 147 140 130 112 93 52 130 145 142 152 157 157 184 285 297 295 294 296 303 305 307 309 327 341 337 351 51 49 51 74 67 53 37 21 11 341 244 212
241 272 259 211 146 114 101 94 83 73 57 77 137 148 149 143 142 171 276 309 317 304 295 311 319 324 332 343 339 332 342 21 66 86 77 61 55 43 16 359 350 330 272
182 227 207 140 117 94 85 83 62 42 32 59 142 153 152 153 165 229 284 336 40 63 60 60 49 33 29 25 5 353 18 51 74 79 69 50 47 36 10 1 360 342 326
168 153 153 145 134 119 109 93 59 39 34 53 127 155 168 178 194 231 271 55 100 94 71 55 44 38 31 21 14 38 62 66 66 65 60 45 37 26 3 358 1 358 351
158 140 148 156 133 122 119 102 73 59 51 67 104 151 174 175 181 207 152 126 116 98 74 58 40 29 29 17 18 43 56 57 55 53 47 35 26 16 4 352 350 354 348
170 147 126 122 129 134 133 102 71 59 63 68 69 91 100 96 89 102 111 106 104 103 81 67 53 35 22 22 50 68 62 58 56 48 30 23 21 8 8 1 347 342 350
203 175 158 152 151 167 156 132 349 29 76 91 88 93 95 91 86 86 83 79 84 97 88 78 64 41 17 37 62 74 76 68 63 59 46 40 27 22 26 24 22 15 20
194 159 150 163 183 206 226 248 313 26 112 123 117 116 106 99 93 86 77 63 57 71 74 77 70 46 19 40 77 80 74 69 57 51 50 48 33 26 35 40 26 12 7
170 162 168 180 193 202 208 213 234 134 123 126 121 124 129 126 123 113 94 72 77 78 78 72 62 46 19 44 94 90 70 57 38 24 29 37 36 24 36 39 24 14 6
158 167 177 180 193 204 179 156 141 129 134 138 126 119 130 143 158 171 153 89 97 107 100 78 64 60 44 44 57 61 63 49 22 10 15 25 28 27 36 41 31 18 349
179 186 186 195 203 173 140 132 128 139 150 138 126 118 111 151 191 189 168 120 113 113 104 92 75 66 62 56 55 55 56 58 48 28 11 5 13 24 33 47 36 360 344
187 190 184 196 177 144 133 137 147 150 136 131 131 123 91 95 177 163 143 120 123 117 109 100 79 52 48 59 62 62 61 64 59 28 358 355 9 13 15 25 23 28 28
189 184 177 183 178 155 147 156 173 153 130 123 124 124 97 57 104 134 128 124 127 124 120 115 105 74 46 47 53 53 50 48 45 6 352 356 7 7 4 359 12 24 32
186 174 167 174 181 176 170 171 170 152 137 138 141 137 108 78 71 80 109 130 137 133 131 129 122 94 42 25 20 21 21 21 18 359 345 346 355 3 358 356 2 11 19
177 167 169 176 179 173 172 172 166 152 149 155 161 159 132 111 93 74 70 106 135 157 153 155 142 121 72 350 14 20 8 4 357 347 351 358 355 356 352 352 358 10 16
170 168 169 172 173 169 174 180 174 163 160 168 178 182 165 140 129 114 80 54 88 118 129 133 136 149 192 227 280 303 316 329 339 10 1 349 353 357 1 9 15 22 21
Height
1503 1507 1509 1511 1513 1515 1518 1521 1523 1524 1526 1528 1530 1532 1533 1534 1535 1536 1536 1535 1534 1534 1533 1532 1532 1531 1529 1528 1527 1526 1525 1523 1524 1523 1521 1521 1521 1520 1520 1520 1520 1520 1520
1498 1501 1503 1505 1508 1511 1514 1517 1519 1521 1523 1525 1526 1528 1530 1531 1532 1531 1531 1530 1530 1529 1527 1526 1525 1524 1522 1521 1520 1519 1518 1517 1518 1517 1516 1516 1516 1515 1514 1514 1515 1515 1515
1492 1495 1497 1500 1504 1507 1510 1513 1515 1518 1520 1522 1524 1525 1526 1527 1528 1528 1528 1527 1525 1522 1521 1519 1517 1515 1514 1513 1512 1512 1510 1509 1510 1511 1512 1511 1509 1509 1509 1508 1509 1510 1510
1491 1493 1495 1497 1501 1504 1507 1510 1512 1515 1517 1519 1521 1522 1523 1523 1523 1524 1524 1522 1519 1516 1514 1511 1509 1507 1506 1505 1504 1504 1503 1503 1503 1504 1505 1506 1505 1505 1504 1504 1504 1505 1505
1497 1496 1496 1496 1498 1501 1503 1505 1508 1512 1514 1515 1517 1518 1519 1519 1520 1520 1519 1517 1514 1511 1509 1506 1503 1501 1499 1498 1497 1497 1496 1497 1497 1498 1498 1500 1500 1499 1499 1498 1499 1500 1500
1500 1499 1498 1499 1499 1500 1502 1504 1506 1509 1510 1511 1513 1514 1515 1516 1517 1516 1515 1512 1510 1507 1505 1503 1500 1497 1495 1493 1492 1491 1491 1492 1493 1493 1494 1495 1495 1494 1494 1493 1493 1495 1495
1503 1500 1499 1500 1501 1501 1502 1504 1506 1507 1508 1510 1512 1513 1513 1513 1512 1511 1509 1507 1506 1504 1502 1500 1498 1495 1493 1490 1488 1488 1487 1488 1489 1490 1491 1491 1492 1491 1491 1490 1490 1491 1491
1504 1502 1500 1500 1500 1501 1502 1504 1505 1506 1508 1510 1510 1510 1510 1509 1508 1508 1506 1505 1504 1502 1500 1499 1497 1495 1492 1489 1487 1487 1486 1486 1487 1487 1488 1488 1488 1488 1487 1486 1487 1488 1487
1503 1501 1500 1500 1498 1501 1502 1503 1504 1505 1506 1507 1507 1507 1508 1508 1508 1507 1505 1504 1502 1501 1499 1498 1496 1494 1492 1489 1487 1485 1484 1484 1485 1485 1485 1485 1485 1485 1484 1483 1485 1486 1485
1504 1502 1500 1499 1497 1499 1502 1503 1503 1504 1505 1506 1506 1507 1507 1508 1508 1507 1506 1504 1502 1500 1499 1497 1495 1493 1491 1489 1487 1485 1483 1482 1482 1483 1483 1483 1483 1483 1482 1481 1481 1483 1484
1501 1500 1500 1499 1499 1501 1502 1501 1502 1503 1505 1505 1506 1507 1507 1508 1507 1506 1505 1504 1502 1500 1498 1496 1494 1491 1489 1487 1486 1485 1483 1482 1482 1482 1482 1482 1481 1480 1480 1480 1480 1481 1480
1496 1497 1497 1497 1498 1498 1499 1500 1501 1503 1504 1505 1505 1506 1506 1506 1506 1505 1504 1502 1501 1499 1497 1495 1493 1490 1488 1486 1485 1484 1483 1482 1482 1482 1482 1481 1480 1479 1479 1478 1478 1477 1477
1491 1494 1495 1497 1498 1498 1498 1499 1500 1502 1503 1504 1504 1505 1505 1504 1504 1503 1502 1501 1501 1499 1497 1495 1493 1490 1488 1486 1485 1484 1483 1482 1482 1482 1482 1481 1479 1478 1477 1476 1475 1474 1473
1490 1491 1493 1495 1497 1498 1499 1499 1499 1500 1502 1503 1503 1503 1503 1503 1503 1503 1502 1501 1500 1499 1497 1495 1492 1490 1487 1486 1485 1485 1484 1483 1483 1482 1481 1480 1478 1477 1476 1475 1473 1471 1471
1490 1491 1492 1493 1495 1496 1497 1497 1497 1498 1500 1501 1501 1501 1501 1502 1502 1502 1502 1501 1500 1499 1498 1495 1493 1491 1489 1488 1487 1486 1485 1484 1483 1482 1482 1480 1479 1477 1476 1475 1473 1471 1471
1489 1490 1490 1491 1493 1494 1496 1496 1496 1496 1497 1498 1499 1499 1499 1500 1501 1501 1502 1501 1501 1500 1499 1497 1495 1493 1491 1489 1488 1487 1486 1485 1484 1484 1483 1481 1480 1478 1477 1476 1475 1473 1471
1487 1488 1489 1490 1492 1493 1495 1495 1495 1495 1496 1497 1497 1498 1499 1499 1500 1500 1501 1501 1501 1501 1499 1498 1497 1495 1493 1492 1490 1489 1488 1487 1486 1486 1485 1483 1482 1481 1480 1479 1477 1475 1473
1484 1485 1486 1488 1490 1492 1493 1494 1494 1494 1495 1496 1497 1497 1498 1498 1499 1499 1499 1500 1501 1501 1500 1499 1498 1497 1495 1494 1493 1492 1491 1490 1489 1488 1487 1486 1485 1483 1482 1481 1479 1477 1475
1483 1484 1485 1487 1488 1488 1489 1490 1492 1492 1493 1494 1495 1496 1497 1497 1498 1498 1499 1499 1500 1500 1500 1500 1499 1498 1497 1496 1495 1495 1494 1493 1492 1491 1490 1489 1487 1486 1484 1482 1480 1479 1477
1482 1483 1484 1485 1485 1485 1486 1488 1489 1490 1492 1493 1495 1495 1496 1497 1497 1497 1498 1499 1500 1500 1500 1500 1500 1500 1499 1498 1497 1496 1496 1495 1494 1493 1492 1490 1489 1488 1486 1484 1482 1481 1479
1481 1482 1483 1483 1483 1484 1485 1487 1488 1489 1491 1492 1493 1494 1495 1496 1496 1497 1498 1498 1499 1499 1500 1500 1501 1501 1500 1499 1498 1497 1496 1496 1495 1494 1493 1492 1490 1489 1487 1486 1484 1483 1481
1479 1480 1481 1482 1482 1483 1484 1485 1487 1488 1489 1490 1492 1493 1494 1495 1496 1496 1496 1497 1498 1498 1499 1500 1500 1500 1500 1500 1499 1498 1497 1497 1496 1495 1494 1493 1492 1490 1489 1488 1486 1484 1482
1476 1478 1479 1480 1481 1482 1483 1484 1485 1486 1487 1488 1490 1491 1492 1493 1494 1494 1495 1495 1496 1497 1498 1499 1499 1500 1500 1499 1499 1498 1498 1497 1496 1495 1495 1494 1492 1491 1489 1488 1487 1485 1482
1472 1474 1476 1478 1479 1481 1482 1483 1483 1484 1485 1486 1487 1489 1490 1491 1491 1492 1493 1494 1495 1496 1497 1498 1499 1499 1499 1499 1499 1498 1498 1497 1496 1496 1494 1493 1492 1490 1489 1488 1486 1484 1482
1469 1471 1472 1474 1476 1478 1479 1480 1481 1482 1482 1483 1485 1487 1488 1489 1490 1491 1493 1494 1495 1497 1498 1498 1499 1500 1500 1500 1499 1498 1497 1496 1495 1494 1493 1492 1490 1489 1488 1487 1485 1484 1482
1464 1467 1469 1471 1472 1474 1476 1478 1479 1480 1481 1482 1483 1485 1487 1488 1490 1491 1493 1494 1496 1497 1498 1498 1499 1500 1500 1499 1498 1497 1496 1495 1494 1493 1492 1491 1490 1489 1488 1487 1485 1483 1482